Weather History for Mansfield, OH

Change the Weather History Date:

Monday, January 21, 2013

  Actual Average Record
Temperature  
Mean Temperature 13 °F 25 °F  
Max Temperature 19 °F 33 °F 58 °F (1974)
Min Temperature 7 °F 18 °F -19 °F (1985)
Degree Days  
Heating Degree Days 52 40  
Month to date heating degree days 712 832  
Since 1 July heating degree days 2914 3209  
Cooling Degree Days 0 0  
Month to date cooling degree days 0 0  
Year to date cooling degree days 0 0  
Moisture  
Dew Point 8 °F    
Average Humidity 78    
Maximum Humidity 92    
Minimum Humidity 63    
Precipitation  
Precipitation 0.04 in 0.09 in 0.63 in (1993)
Month to date precipitation 1.10 2.01  
Year to date precipitation 1.10 2.01  
Snow  
Snow 0.90 in 0.40 in - ()
Month to date snowfall 0.9 9.1  
Since 1 July snowfall 13.7 22.3  
Snow Depth 0.00 in    
Sea Level Pressure  
Sea Level Pressure 30.01 in    
Wind  
Wind Speed 10 mph (WSW)    
Max Wind Speed 21 mph    
Max Gust Speed 28 mph    
Visibility 5 miles    
Events Fog , Snow    
T = Trace of Precipitation, MM = Missing Value Source: NWS Daily Summary

Daily Weather History Graph

Daily Weather History Graph

Search for Another Location

Airport:

Trip Planner

Search our weather history database for the weather conditions in past years. The results will help you decide how hot, cold, wet, or windy it might be!

Date:

Astronomy

Jan. 21, 2013 Rise Set
Actual Time 7:48 AM EST 5:34 PM EST
Civil Twilight 7:19 AM EST 6:04 PM EST
Nautical Twilight 6:45 AM EST 6:37 PM EST
Astronomical Twilight 6:13 AM EST 7:10 PM EST
Moon 1:13 PM EST (1/21) 3:16 AM EST (1/21)
Length of Visible Light 10h 44m
Length of Day
9h 45m
Waxing Gibbous, 75% of the Moon is Illuminated
Jan 21
Waxing Gibbous
Jan 26
Full
Feb 3
Last Quarter
Feb 10
New
Feb 17
First Quarter

Hourly Weather History & Observations

Time (EST) Temp. Windchill Dew Point Humidity Pressure Visibility Wind Dir Wind Speed Gust Speed Precip Events Conditions
12:52 AM 18.0 °F 7.7 °F 10.0 °F 71% 30.15 in 10.0 mi West 8.1 mph - N/A   Mostly Cloudy
1:00 AM 17.6 °F 10.7 °F 10.4 °F 73% 30.09 in 10.0 mi WNW 4.6 mph - N/A   Mostly Cloudy
1:52 AM 18.0 °F 9.8 °F 10.0 °F 71% 30.14 in 10.0 mi West 5.8 mph - N/A   Overcast
2:05 AM 17.6 °F 9.3 °F 8.6 °F 68% 30.07 in 10.0 mi West 5.8 mph - N/A   Overcast
2:52 AM 18.0 °F 9.8 °F 9.0 °F 68% 30.13 in 10.0 mi West 5.8 mph - N/A   Overcast
3:52 AM 18.0 °F 9.8 °F 9.0 °F 68% 30.11 in 10.0 mi West 5.8 mph - N/A   Overcast
4:52 AM 18.0 °F 6.9 °F 8.1 °F 65% 30.10 in 10.0 mi WSW 9.2 mph - N/A   Overcast
5:52 AM 17.1 °F 10.0 °F 8.1 °F 68% 30.08 in 10.0 mi West 4.6 mph - N/A   Overcast
6:52 AM 18.0 °F 9.8 °F 10.0 °F 71% 30.07 in 10.0 mi SW 5.8 mph - N/A   Overcast
7:52 AM 18.0 °F 8.7 °F 10.0 °F 71% 30.06 in 10.0 mi SW 6.9 mph - N/A   Overcast
8:41 AM 17.6 °F 7.3 °F 10.4 °F 73% 29.99 in 9.0 mi SW 8.1 mph - N/A   Overcast
8:52 AM 18.0 °F 9.8 °F 10.0 °F 71% 30.05 in 7.0 mi WSW 5.8 mph - N/A   Overcast
8:59 AM 17.6 °F 6.4 °F 10.4 °F 73% 29.99 in 5.0 mi WSW 9.2 mph - 0.00 in Snow Light Snow
9:16 AM 17.6 °F 7.3 °F 10.4 °F 73% 29.99 in 2.5 mi SW 8.1 mph - 0.00 in Snow Light Snow
9:52 AM 18.0 °F 7.7 °F 12.9 °F 81% 30.05 in 2.5 mi SW 8.1 mph - 0.00 in Snow Light Snow
9:57 AM 19.4 °F 11.5 °F 12.2 °F 74% 29.98 in 1.5 mi SW 5.8 mph - 0.00 in Snow Light Snow
10:36 AM 17.6 °F 7.3 °F 14.0 °F 86% 29.97 in 0.5 mi WSW 8.1 mph - 0.01 in Fog , Snow Snow
10:47 AM 17.6 °F 7.3 °F 15.8 °F 93% 29.98 in 0.2 mi West 8.1 mph - 0.01 in Fog , Snow Heavy Snow
10:48 AM 18.0 °F 6.1 °F 15.1 °F 88% 30.04 in 0.2 mi West 10.4 mph 16.1 mph 0.01 in Fog , Snow Heavy Snow
11:01 AM 17.6 °F 4.3 °F 12.2 °F 79% 29.98 in 1.0 mi West 12.7 mph 19.6 mph 0.00 in Snow Light Snow
11:06 AM 17.6 °F 3.7 °F 12.2 °F 79% 29.98 in 3.0 mi West 13.8 mph 19.6 mph 0.01 in Snow Light Snow
11:13 AM 17.6 °F 5.0 °F 12.2 °F 79% 29.98 in 7.0 mi West 11.5 mph 19.6 mph 0.01 in Snow Light Snow
11:20 AM 19.4 °F 10.4 °F 12.2 °F 74% 29.97 in 9.0 mi West 6.9 mph 17.3 mph 0.01 in   Overcast
11:36 AM 17.6 °F 6.4 °F 12.2 °F 79% 29.96 in 1.5 mi West 9.2 mph - 0.01 in Snow Light Snow
11:47 AM 17.6 °F 4.3 °F 10.4 °F 73% 29.96 in 3.0 mi West 12.7 mph 23.0 mph 0.01 in Snow Light Snow
11:52 AM 18.0 °F 6.1 °F 10.0 °F 71% 30.02 in 7.0 mi West 10.4 mph - 0.01 in Snow Light Snow
12:00 PM 17.6 °F 7.3 °F 10.4 °F 73% 29.96 in 8.0 mi West 8.1 mph 17.3 mph N/A   Overcast
12:13 PM 17.6 °F 5.0 °F 10.4 °F 73% 29.95 in 1.8 mi West 11.5 mph - 0.00 in Snow Light Snow
12:20 PM 17.6 °F 5.0 °F 10.4 °F 73% 29.95 in 2.0 mi WSW 11.5 mph - 0.00 in Snow Light Snow
12:25 PM 17.6 °F 4.3 °F 10.4 °F 73% 29.94 in 3.0 mi WSW 12.7 mph - 0.00 in Snow Light Snow
12:30 PM 17.6 °F 3.7 °F 10.4 °F 73% 29.94 in 1.8 mi WSW 13.8 mph - 0.00 in Snow Light Snow
12:35 PM 17.6 °F 4.3 °F 10.4 °F 73% 29.94 in 2.0 mi WSW 12.7 mph 19.6 mph 0.00 in Snow Light Snow
12:41 PM 17.6 °F 5.7 °F 10.4 °F 73% 29.93 in 7.0 mi WSW 10.4 mph 19.6 mph 0.00 in Snow Light Snow
12:52 PM 18.0 °F 4.2 °F 10.0 °F 71% 30.00 in 2.5 mi WSW 13.8 mph 27.6 mph 0.00 in Snow Light Snow
12:56 PM 17.6 °F 3.7 °F 10.4 °F 73% 29.93 in 3.0 mi West 13.8 mph 27.6 mph 0.00 in Snow Light Snow
1:39 PM 17.6 °F 3.2 °F 10.4 °F 73% 29.94 in 2.5 mi West 15.0 mph 21.9 mph 0.00 in Snow Light Snow
1:44 PM 15.8 °F 0.3 °F 10.4 °F 79% 29.94 in 0.8 mi West 16.1 mph 21.9 mph 0.00 in Snow Light Snow
1:47 PM 15.8 °F 1.4 °F 10.4 °F 79% 29.94 in 0.2 mi West 13.8 mph 21.9 mph 0.00 in Snow Heavy Snow
1:52 PM 15.1 °F 0.5 °F 12.0 °F 88% 30.01 in 0.2 mi West 13.8 mph 21.9 mph 0.00 in Fog , Snow Heavy Snow
1:59 PM 15.8 °F 0.9 °F 10.4 °F 79% 29.94 in 0.2 mi West 15.0 mph 27.6 mph 0.00 in Fog , Snow Light Snow
2:04 PM 17.6 °F 4.3 °F 10.4 °F 73% 29.94 in 1.0 mi WSW 12.7 mph 26.5 mph 0.00 in Snow Light Snow
2:07 PM 17.6 °F 4.3 °F 8.6 °F 68% 29.94 in 3.0 mi WSW 12.7 mph 20.7 mph 0.00 in Snow Light Snow
2:23 PM 15.8 °F 0.9 °F 8.6 °F 73% 29.94 in 2.5 mi West 15.0 mph 20.7 mph 0.00 in Snow Light Snow
2:27 PM 15.8 °F 2.1 °F 10.4 °F 79% 29.94 in 0.8 mi West 12.7 mph 21.9 mph 0.00 in Snow Light Snow
2:35 PM 15.8 °F 0.3 °F 8.6 °F 73% 29.94 in 2.0 mi WSW 16.1 mph 24.2 mph 0.00 in Snow Light Snow
2:37 PM 15.8 °F 0.9 °F 8.6 °F 73% 29.94 in 6.0 mi West 15.0 mph 24.2 mph 0.00 in   Haze
2:42 PM 15.8 °F -0.6 °F 8.6 °F 73% 29.94 in 2.5 mi West 18.4 mph 26.5 mph 0.00 in Snow Light Snow
2:52 PM 16.0 °F 0.6 °F 8.1 °F 71% 30.01 in 2.0 mi WSW 16.1 mph 27.6 mph 0.00 in Snow Light Snow
3:01 PM 15.8 °F 0.9 °F 10.4 °F 79% 29.95 in 1.0 mi West 15.0 mph 24.2 mph 0.00 in Snow Light Snow
3:13 PM 15.8 °F 2.1 °F 6.8 °F 68% 29.95 in 3.0 mi West 12.7 mph 23.0 mph 0.00 in Snow Light Snow
3:24 PM 17.6 °F 1.3 °F 5.0 °F 58% 29.96 in 10.0 mi WSW 19.6 mph 27.6 mph 0.00 in   Overcast
3:38 PM 15.8 °F 2.7 °F 6.8 °F 68% 29.96 in 3.0 mi West 11.5 mph 25.3 mph 0.00 in Snow Light Snow
3:41 PM 15.8 °F 2.1 °F 6.8 °F 68% 29.97 in 1.8 mi West 12.7 mph 25.3 mph 0.00 in Snow Light Snow
3:52 PM 14.0 °F -2.0 °F 3.9 °F 64% 30.04 in 4.0 mi West 16.1 mph 27.6 mph 0.00 in Snow Light Snow
4:13 PM 14.0 °F -2.0 °F 3.2 °F 62% 29.98 in 9.0 mi WSW 16.1 mph 20.7 mph 0.00 in   Mostly Cloudy
4:30 PM 14.0 °F -0.8 °F 3.2 °F 62% 29.99 in 5.0 mi West 13.8 mph 24.2 mph 0.00 in Snow Light Snow
4:42 PM 14.0 °F -2.0 °F 3.2 °F 62% 29.99 in 10.0 mi WSW 16.1 mph 25.3 mph 0.00 in   Mostly Cloudy
4:52 PM 12.9 °F -0.9 °F 1.9 °F 62% 30.06 in 10.0 mi WSW 11.5 mph 23.0 mph 0.00 in   Mostly Cloudy
5:14 PM 12.2 °F -3.7 °F 6.8 °F 79% 30.00 in 1.5 mi WSW 15.0 mph 20.7 mph 0.00 in Snow Light Snow
5:17 PM 12.2 °F -1.8 °F 8.6 °F 85% 30.00 in 0.8 mi WSW 11.5 mph 20.7 mph 0.00 in Snow Light Snow
5:25 PM 12.2 °F -1.0 °F 8.6 °F 85% 30.00 in 1.2 mi WSW 10.4 mph 18.4 mph 0.00 in Snow Light Snow
5:29 PM 12.2 °F -1.8 °F 8.6 °F 85% 30.00 in 4.0 mi West 11.5 mph 19.6 mph 0.00 in Snow Light Snow
5:52 PM 12.9 °F 0.7 °F 6.1 °F 74% 30.07 in 3.0 mi WSW 9.2 mph - 0.00 in Snow Light Snow
5:55 PM 12.2 °F -1.8 °F 6.8 °F 79% 30.01 in 1.8 mi WSW 11.5 mph - 0.00 in Snow Light Snow
6:02 PM 12.2 °F -1.8 °F 8.6 °F 85% 30.01 in 0.8 mi WSW 11.5 mph 18.4 mph 0.01 in Snow Light Snow
6:20 PM 12.2 °F -0.2 °F 8.6 °F 85% 30.01 in 1.5 mi West 9.2 mph - 0.01 in Snow Light Snow
6:32 PM 12.2 °F -2.5 °F 6.8 °F 79% 30.01 in 2.0 mi West 12.7 mph 24.2 mph 0.01 in Snow Light Snow
6:38 PM 12.2 °F -1.8 °F 5.0 °F 73% 30.01 in 4.0 mi West 11.5 mph 19.6 mph 0.01 in Snow Light Snow
6:52 PM 12.0 °F -2.0 °F 3.9 °F 70% 30.09 in 10.0 mi WSW 11.5 mph 19.6 mph 0.01 in   Mostly Cloudy
7:18 PM 10.4 °F -5.4 °F 5.0 °F 79% 30.02 in 3.0 mi West 13.8 mph 20.7 mph 0.00 in Snow Light Snow
7:20 PM 10.4 °F -4.8 °F 5.0 °F 79% 30.02 in 1.8 mi West 12.7 mph 20.7 mph 0.00 in Snow Light Snow
7:31 PM 10.4 °F -3.3 °F 5.0 °F 79% 30.03 in 3.0 mi WSW 10.4 mph 20.7 mph 0.00 in Snow Light Snow
7:52 PM 10.9 °F -2.6 °F 6.1 °F 81% 30.10 in 2.5 mi WSW 10.4 mph - 0.00 in Snow Light Snow
8:01 PM 10.4 °F -6.0 °F 3.2 °F 73% 30.03 in 8.0 mi WSW 15.0 mph 20.7 mph 0.00 in   Overcast
8:23 PM 10.4 °F -7.2 °F -0.4 °F 62% 30.04 in 10.0 mi West 17.3 mph 25.3 mph 0.00 in   Overcast
8:52 PM 10.0 °F -3.7 °F -0.0 °F 64% 30.12 in 10.0 mi WSW 10.4 mph 21.9 mph 0.00 in   Overcast
9:27 PM 8.6 °F -6.3 °F -2.2 °F 62% 30.05 in 8.0 mi West 11.5 mph 27.6 mph 0.00 in Snow Light Snow
9:52 PM 8.1 °F -7.0 °F -2.0 °F 64% 30.14 in 10.0 mi West 11.5 mph 19.6 mph 0.00 in   Scattered Clouds
10:13 PM 8.6 °F -7.7 °F -2.2 °F 62% 30.06 in 10.0 mi West 13.8 mph 24.2 mph N/A   Mostly Cloudy
10:25 PM 8.6 °F -4.7 °F -2.2 °F 62% 30.06 in 10.0 mi West 9.2 mph 18.4 mph N/A   Scattered Clouds
10:49 PM 8.6 °F -6.3 °F -2.2 °F 62% 30.07 in 10.0 mi West 11.5 mph - N/A   Mostly Cloudy
10:52 PM 8.1 °F -9.0 °F -2.9 °F 61% 30.14 in 10.0 mi West 15.0 mph - N/A   Mostly Cloudy
11:26 PM 6.8 °F -8.6 °F -2.2 °F 67% 30.07 in 10.0 mi West 11.5 mph 20.7 mph N/A   Mostly Cloudy
11:43 PM 8.6 °F -8.9 °F -0.4 °F 67% 30.08 in 6.0 mi West 16.1 mph 23.0 mph 0.00 in Snow Light Snow
11:52 PM 7.0 °F -11.0 °F -2.9 °F 64% 30.15 in 9.0 mi West 16.1 mph 25.3 mph 0.00 in   Mostly Cloudy